Date String (YYYY-MM-DD hh:mm:ss) UTC,Instrument flags,Ambient pressure (hPa),Sample flow (lpm),Bypass flow (lpm),Sample temperature (°C),Ambient temperature (°C),ASC tube jacket temperature (°C),LED temperature (°C),Box temperature (°C),Sample RH (%),Span deviation,Mass concentration (μg/m³),Mass concentration (μg/m³),Mass concentration (μg/m³)
DateTimeUTC,F1_M11,P_M11,Q1_M11,Q2_M11,T1_M11,T2_M11,T3_M11,T4_M11,T5_M11,U1_M11,ZSPAN_M11,X0_M11,X2_M11,X1_M11
2022-02-04 09:00:00,,0832.2,5.01,0.00,21.6,21.0,00.0,30.8,23.1,05.3,0000.0,0007.61,0004.67,0004.44
2022-02-04 09:01:00,,0832.3,5.01,0.00,21.7,21.7,00.0,30.8,23.3,05.3,0000.0,0007.72,0004.72,0004.48
2022-02-04 09:02:00,,0832.3,5.00,0.00,21.9,22.5,00.0,30.8,23.6,05.2,0000.0,0007.60,0004.66,0004.45
2022-02-04 09:03:00,,0832.3,5.00,0.00,22.0,22.9,00.0,30.9,23.8,05.1,0000.0,0007.48,0004.58,0004.37
2022-02-04 09:04:00,,0832.3,5.01,0.00,22.0,22.5,00.0,30.9,23.7,05.1,0000.0,0007.36,0004.48,0004.29
2022-02-04 09:05:00,,0832.3,5.00,0.00,21.9,22.0,00.0,30.9,23.4,05.1,0000.0,0007.05,0004.37,0004.18
2022-02-04 09:06:00,,0832.3,5.00,0.00,21.8,21.5,00.0,30.8,23.2,05.2,0000.0,0006.83,0004.30,0004.11
2022-02-04 09:07:00,,0832.3,5.02,0.00,21.6,21.1,00.0,30.8,22.9,05.3,0000.0,0006.27,0004.11,0003.94
2022-02-04 09:08:00,,0832.3,4.99,0.00,21.5,20.8,00.0,30.7,22.7,05.4,0000.0,0005.85,0003.85,0003.68
2022-02-04 09:09:00,,0832.3,5.00,0.00,21.4,21.1,00.0,30.7,22.8,05.4,0000.0,0005.63,0003.69,0003.55
2022-02-04 09:10:00,,0832.3,5.01,0.00,21.6,21.8,00.0,30.8,23.2,05.4,0000.0,0005.30,0003.56,0003.44
2022-02-04 09:11:00,,0832.3,5.01,0.00,21.7,22.5,00.0,30.8,23.5,05.3,0000.0,0004.98,0003.49,0003.39
2022-02-04 09:12:00,,0832.4,5.00,0.00,21.9,23.0,00.0,30.8,23.8,05.3,0000.0,0004.75,0003.44,0003.35
2022-02-04 09:13:00,,0832.3,5.00,0.00,22.0,23.0,00.0,30.9,23.8,05.3,0000.0,0004.78,0003.44,0003.34
2022-02-04 09:14:00,,0832.3,5.00,0.00,21.9,22.4,00.0,30.9,23.6,05.3,0000.0,0004.85,0003.46,0003.35
2022-02-04 09:15:00,,0832.3,5.00,0.00,21.8,21.8,00.0,30.9,23.3,05.3,0000.0,0004.90,0003.48,0003.36
2022-02-04 09:16:00,,0832.4,4.99,0.00,21.7,21.3,00.0,30.8,23.1,05.3,0000.0,0004.90,0003.48,0003.36
2022-02-04 09:17:00,,0832.4,5.01,0.00,21.6,20.9,00.0,30.8,22.9,05.3,0000.0,0004.89,0003.49,0003.38
2022-02-04 09:18:00,,0832.4,4.99,0.00,21.4,20.7,00.0,30.7,22.7,05.4,0000.0,0004.97,0003.53,0003.42
2022-02-04 09:19:00,,0832.5,5.01,0.00,21.5,21.4,00.0,30.7,23.0,05.4,0000.0,0005.00,0003.61,0003.48
2022-02-04 09:20:00,,0832.5,5.01,0.00,21.7,22.2,00.0,30.8,23.3,05.3,0000.0,0005.01,0003.69,0003.56
2022-02-04 09:21:00,,0832.5,5.00,0.00,21.8,22.8,00.0,30.8,23.6,05.3,0000.0,0005.25,0003.78,0003.65
2022-02-04 09:22:00,,0832.5,5.00,0.00,21.9,23.0,00.0,30.8,23.7,05.3,0000.0,0005.41,0003.85,0003.71
2022-02-04 09:23:00,,0832.5,4.99,0.00,21.9,22.5,00.0,30.8,23.6,05.3,0000.0,0006.53,0003.93,0003.79
2022-02-04 09:24:00,,0832.5,5.00,0.00,21.8,22.0,00.0,30.8,23.4,05.3,0000.0,0006.93,0004.03,0003.89
2022-02-04 09:25:00,,0832.6,5.00,0.00,21.8,21.6,00.0,30.8,23.2,05.3,0000.0,0007.16,0004.14,0004.01
2022-02-04 09:26:00,,0832.6,5.00,0.00,21.7,21.3,00.0,30.8,23.0,05.3,0000.0,0007.21,0004.17,0004.03
2022-02-04 09:27:00,,0832.6,4.99,0.00,21.6,20.9,00.0,30.7,22.9,05.3,0000.0,0007.22,0004.18,0004.05
2022-02-04 09:28:00,,0832.6,5.00,0.00,21.5,21.1,00.0,30.7,22.9,05.3,0000.0,0007.32,0004.23,0004.08
2022-02-04 09:29:00,,0832.6,5.01,0.00,21.6,21.9,00.0,30.8,23.3,05.3,0000.0,0007.48,0004.33,0004.17
2022-02-04 09:30:00,,0832.5,5.00,0.00,21.8,22.7,00.0,30.8,23.6,05.3,0000.0,0007.65,0004.45,0004.27
2022-02-04 09:31:00,,0832.5,5.01,0.00,22.0,23.1,00.0,30.8,23.8,05.2,0000.0,0007.79,0004.55,0004.34
2022-02-04 09:32:00,,0832.5,4.99,0.00,22.0,22.7,00.0,30.9,23.8,05.2,0000.0,0007.87,0004.61,0004.39
2022-02-04 09:33:00,,0832.5,5.01,0.00,22.0,22.3,00.0,30.9,23.7,05.2,0000.0,0008.05,0004.75,0004.50
2022-02-04 09:34:00,,0832.5,5.01,0.00,21.9,22.0,00.0,30.9,23.5,05.3,0000.0,0007.68,0004.92,0004.66
2022-02-04 09:35:00,,0832.5,5.00,0.00,21.8,21.6,00.0,30.8,23.4,05.4,0000.0,0007.83,0005.12,0004.86
2022-02-04 09:36:00,,0832.5,5.00,0.00,21.8,21.3,00.0,30.8,23.2,05.5,0000.0,0008.28,0005.32,0005.03
2022-02-04 09:37:00,,0832.5,5.00,0.00,21.7,21.0,00.0,30.8,23.1,05.5,0000.0,0008.72,0005.56,0005.25
2022-02-04 09:38:00,,0832.5,5.00,0.00,21.6,21.2,00.0,30.8,23.1,05.6,0000.0,0009.10,0005.87,0005.54
2022-02-04 09:39:00,,0832.5,5.01,0.00,21.8,21.9,00.0,30.8,23.4,05.6,0002.0,0009.52,0006.20,0005.84
2022-02-04 09:40:00,,0832.6,4.99,0.00,21.9,22.7,00.0,30.9,23.7,05.6,0004.0,0009.86,0006.46,0006.09
2022-02-04 09:41:00,,0832.5,5.00,0.00,22.0,23.0,00.0,30.9,23.9,05.5,0004.7,0010.18,0006.64,0006.28
2022-02-04 09:42:00,,0832.5,5.01,0.00,22.0,22.5,00.0,30.9,23.7,05.2,0003.8,0010.33,0006.59,0006.25
2022-02-04 09:43:00,,0832.5,5.00,0.00,21.9,22.0,00.0,30.9,23.4,05.2,0000.0,0010.31,0006.57,0006.24
2022-02-04 09:44:00,,0832.6,5.00,0.00,21.8,21.5,00.0,30.9,23.2,05.4,0000.0,0010.44,0006.66,0006.33
2022-02-04 09:45:00,,0832.6,4.98,0.00,21.6,21.1,00.0,30.8,23.0,05.4,0000.0,0010.52,0006.67,0006.34
2022-02-04 09:46:00,,0832.6,5.01,0.00,21.5,20.8,00.0,30.8,22.8,05.4,0000.0,0010.60,0006.53,0006.20
2022-02-04 09:47:00,,0832.6,4.99,0.00,21.4,20.8,00.0,30.7,22.8,05.4,0000.0,0010.58,0006.39,0006.06
2022-02-04 09:48:00,,0832.7,5.00,0.00,21.5,21.5,00.0,30.8,23.1,05.4,0000.0,0010.34,0006.29,0005.96
2022-02-04 09:49:00,,0832.7,4.99,0.00,21.7,22.2,00.0,30.8,23.4,05.4,0000.0,0010.19,0006.17,0005.86
2022-02-04 09:50:00,,0832.7,5.01,0.00,21.9,22.8,00.0,30.8,23.7,05.4,0000.0,0009.97,0006.01,0005.72
2022-02-04 09:51:00,,0832.7,4.99,0.00,22.0,22.7,00.0,30.8,23.7,05.3,0000.0,0009.73,0005.83,0005.56
2022-02-04 09:52:00,,0832.7,5.00,0.00,21.9,22.1,00.0,30.8,23.4,05.3,0000.0,0009.48,0005.72,0005.44
2022-02-04 09:53:00,,0832.6,5.00,0.00,21.7,21.6,00.0,30.8,23.2,05.4,0000.0,0009.72,0005.82,0005.52
2022-02-04 09:54:00,,0832.7,5.02,0.00,21.6,21.2,00.0,30.8,22.9,05.5,0000.1,0010.19,0005.97,0005.65
2022-02-04 09:55:00,,0832.7,5.00,0.00,21.4,20.8,00.0,30.7,22.7,05.6,0000.5,0010.19,0005.98,0005.65
2022-02-04 09:56:00,,0832.7,4.99,0.00,21.5,21.2,00.0,30.7,22.9,05.6,0000.0,0010.12,0005.96,0005.64
2022-02-04 09:57:00,,0832.7,5.01,0.00,21.6,22.0,00.0,30.7,23.2,05.5,0000.0,0009.92,0006.01,0005.69
2022-02-04 09:58:00,,0832.7,5.00,0.00,21.8,22.6,00.0,30.8,23.5,05.4,0000.0,0009.65,0006.05,0005.73
2022-02-04 09:59:00,,0832.7,5.01,0.00,21.9,23.0,00.0,30.8,23.7,05.4,0000.0,0009.72,0006.10,0005.78
